Location: Newark
(23.1300°N, 73.6109°E)
Time: 07:26:36
(UTC+00:00)

Hubble Space Telescope - Pass Details

Date: 26 July 2021
Orbit: 535 x 539 km, 28.5° (Epoch: 26 September)

Event Time Altitude Azimuth Distance (km) Brightness Sun altitude
Rises 15:31:11 0° 281° (W) 2,666 5.5 -21.4°
Reaches altitude 10° 15:33:34 10° 289° (WNW) 1,775 4.5 -21.9°
Maximum altitude 15:37:24 38° 358° (N) 824 1.9 -22.6°
Enters shadow 15:38:28 32° 33° (NNE) 931 1.9 -22.8°
